Volver al catálogo

FLOCK 4H 21

ActivoCienciaSSO
NORAD 66724·PAYLOAD·🇺🇸 United States

Lanzado Nov 28, 2025 desde Vandenberg Space Force Base

Loading…

Próximos Pases (próximas 24 horas)

TLE

ActualizadoSource: CelesTrak SupGP

Época: Sep 14, 2026, 12:45 UTC

1 66724C 25276BL  26257.53140046  .00008125  00000+0  35967-3 0  2577
2 66724  97.4108 329.9468 0002504  33.5547 276.1401 15.21720134    13

Sigue FLOCK 4H 21 en tiempo real con AllMySat

Download on the App Store